Location: Castiglione Fibocchi
(43.5333°N, 11.7667°E)
Time: 13:51:03
(UTC+00:00)

NOSS 2-2 (C) - Pass Details

Date: 15 August 2020
Orbit: 469 x 1739 km, 63.3° (Epoch: 21 September)

Event Time Altitude Azimuth Distance (km) Brightness Sun altitude
Exits shadow 02:18:08 29° 155° (SSE) 890 4.2 -19.3°
Maximum altitude 02:19:07 35° 119° (ESE) 782 4.2 -19.1°
Drops below altitude 10° 02:22:31 10° 52° (NE) 1,724 7.1 -18.7°
Sets 02:24:56 0° 44° (NE) 2,716 8.6 -18.4°
